Location: Czu?�w
(50.1404°N, 18.9919°E)
Time: 11:13:37
(UTC+00:00)

Cosmos 2058 Rocket - Pass Details

Date: 27 October 2020
Orbit: 610 x 639 km, 82.5° (Epoch: 24 November)

Event Time Altitude Azimuth Distance (km) Brightness Sun altitude
Rises 16:03:03 0° 157° (SSE) 2,919 6.4 -6.1°
Reaches altitude 10° 16:05:32 10° 145° (SE) 2,020 5.5 -6.5°
Maximum altitude 16:09:16 27° 88° (E) 1,242 4.1 -7.1°
Drops below altitude 10° 16:13:03 10° 31° (NNE) 2,042 5.3 -7.7°
Sets 16:15:34 0° 20° (NNE) 2,957 6.2 -8.1°
